NOAA 1 DEB *

Satellite information

Favourite Embed

Satellite Type and Status

DEBRISIN ORBIT

Key statistics

Satellite NOAA 1 DEB * at a glance.

Uptime

19877

Days in orbit

Revolutions

≈ 12.4

Per day

Orbit

SSO

Sun Synchronous Orbit

Inclination

102.2

Latest

Satellite identification and parameters

Extended collection of information and parameters for NOAA 1 DEB *.

Object identification

Identified? True

Debris? True

Object name: NOAA 1 DEB *

International designator: 1970-106C

Object number (NORAD): 8828

Object ID (CCSDS): 8828

Country: UNITED STATES OF AMERICA (US)

Current information (Y/N): Y

RCS size: SMALL

Orbital parameters

Period: 116.168 minutes

Inclination: 102.196 deg

SMA: 7886.522 km

Apoapsis: 1532.72 km

Periapsis: 1484.054 km

RAAN: 103.2847 deg

Eccentricy: 0.0030854

Argument of periapsis: 149.8951 deg

Mean anomaly: 268.79 deg

Mean motion: 12.39579741 rev/day

Mean motion (dot): 0.00000167 rev/day2

B* drag term: 0.0015977 1/REarth

Two-line elements (TLE)

Creation date: May 11, 2025, 10:21 p.m.

Reference frame: TEME

Reference center: EARTH

Epoch: May 10, 2025, 8:56 p.m. UTC

TLE line 0: 0 NOAA 1 DEB *

TLE line 1: 1 08828U 70106C 25130.87226950 .00000167 00000-0 15977-2 0 9995

TLE line 2: 2 08828 102.1960 103.2847 0030854 149.8951 268.7900 12.39579741461482

Live tracking on map

Real-time ground track for satellite NOAA 1 DEB *.

In-orbit conjunctions

A list of the most updated potential collisions computed for object NOAA 1 DEB *.

Target Orbit TCA Probability of collision Miss distance Type
SL-14 DEB LEO 2024-09-27 16:52:48 0.0002485421 766.0 (m) DEBRIS

Associated space launch

Sun-synchronous meteorological satellite

NOAA 1 DEB * was lifted into orbit during the mission ‘Thor Delta N6 | NOAA 1’, on board a Thor Delta N6 space rocket.

The launch took place on Dec. 11, 1970, 11:35 a.m. from Space Launch Complex 2W.

For more information about the launch, click the button.

Launch to space Thor Delta N6 | NOAA 1
Thor Delta N6 | NOAA 1

Agency: N/A

Status: Launch Successful

Launch date: Dec. 11, 1970, 11:35 a.m. UTC

Rocket: Thor Delta N6

Launch pad: Space Launch Complex 2W

Location: Vandenberg SFB, CA, USA

...

Latest news about this satellite

There are no fresh news available about this satellite. Check back as we update our databases every day.


Newsletter sign-up

Weekly statistics, charts and insights to help you stay on top of the space industry.